When you browse on this site, cookies collect data to enhance your experience and personalize the content and advertising you see.
Visit our Privacy Policy to learn more. By continuing to use the site, you agree to this use of cookies and data.
  • In Netherlands
  • List of Countries
  • For 7 days
  • Water Temperature
  • Satellite Maps
  • Weather Map
  • Weather Widgets
  • user-avatar
    Login

    Hourly Weather Sylhet

    Today, 21 March, Thursday

    Time Temperature Precipitation Wind Pressure Humidity
    00:00 +24°C° 0 mm 1 mps 758 mmHg 64%
    01:00 +23°C° 0.1 mm 1 mps 758 mmHg 68%
    02:00 +23°C° 0.1 mm 1 mps 757 mmHg 71%
    03:00 +21°C° 0.1 mm 2 mps 757 mmHg 75%
    04:00 +21°C° 0 mm 2 mps 757 mmHg 77%
    05:00 +20°C° 0 mm 2 mps 757 mmHg 80%
    06:00 +20°C° 0 mm 2 mps 757 mmHg 85%
    07:00 +23°C° 0 mm 2 mps 758 mmHg 78%
    08:00 +26°C° 0 mm 2 mps 758 mmHg 71%
    09:00 +28°C° 0 mm 2 mps 759 mmHg 65%
    10:00 +30°C° 0 mm 2 mps 758 mmHg 54%
    11:00 +34°C° 0 mm 2 mps 758 mmHg 44%
    12:00 +36°C° 0 mm 3 mps 758 mmHg 33%
    13:00 +36°C° 0 mm 3 mps 757 mmHg 30%
    14:00 +37°C° 0 mm 3 mps 756 mmHg 27%
    15:00 +37°C° 0 mm 4 mps 755 mmHg 24%
    16:00 +35°C° 0 mm 3 mps 755 mmHg 29%
    17:00 +32°C° 0 mm 2 mps 755 mmHg 34%
    18:00 +29°C° 0 mm 1 mps 755 mmHg 38%
    19:00 +28°C° 0 mm 1 mps 756 mmHg 40%
    20:00 +27°C° 0 mm 1 mps 756 mmHg 42%
    21:00 +26°C° 0 mm 2 mps 757 mmHg 44%
    22:00 +25°C° 0 mm 2 mps 757 mmHg 47%
    23:00 +24°C° 0 mm 2 mps 757 mmHg 50%

    Tomorrow, 22 March, Friday

    Time Temperature Precipitation Wind Pressure Humidity
    00:00 +24°C° 0 mm 2 mps 757 mmHg 53%
    01:00 +23°C° 0 mm 2 mps 757 mmHg 59%
    02:00 +23°C° 0 mm 2 mps 757 mmHg 64%
    03:00 +23°C° 0 mm 2 mps 756 mmHg 70%
    04:00 +21°C° 0 mm 2 mps 756 mmHg 70%
    05:00 +21°C° 0 mm 2 mps 757 mmHg 71%
    06:00 +21°C° 0 mm 2 mps 757 mmHg 71%
    07:00 +24°C° 0 mm 2 mps 757 mmHg 68%
    08:00 +26°C° 0 mm 2 mps 758 mmHg 65%
    09:00 +28°C° 0 mm 2 mps 758 mmHg 62%
    10:00 +30°C° 0 mm 2 mps 758 mmHg 56%
    11:00 +34°C° 0 mm 2 mps 757 mmHg 50%
    12:00 +36°C° 0 mm 2 mps 757 mmHg 44%
    13:00 +36°C° 0.1 mm 2 mps 756 mmHg 41%
    14:00 +37°C° 0.1 mm 2 mps 755 mmHg 39%
    15:00 +37°C° 0.1 mm 2 mps 754 mmHg 36%
    16:00 +34°C° 3.9 mm 2 mps 754 mmHg 51%
    17:00 +30°C° 3.9 mm 2 mps 754 mmHg 67%
    18:00 +26°C° 3.9 mm 2 mps 754 mmHg 83%
    19:00 +26°C° 0.5 mm 2 mps 755 mmHg 84%
    20:00 +25°C° 0.5 mm 2 mps 755 mmHg 86%
    21:00 +25°C° 0.5 mm 2 mps 756 mmHg 88%
    22:00 +24°C° 0.3 mm 2 mps 756 mmHg 89%
    23:00 +24°C° 0.3 mm 2 mps 756 mmHg 91%

    Day after tomorrow, 23 March, Saturday

    Time Temperature Precipitation Wind Pressure Humidity
    00:00 +23°C° 0.3 mm 2 mps 756 mmHg 92%
    01:00 +23°C° 0.4 mm 2 mps 756 mmHg 92%
    02:00 +23°C° 0.4 mm 2 mps 756 mmHg 93%
    03:00 +21°C° 0.4 mm 2 mps 755 mmHg 93%
    04:00 +21°C° 0.1 mm 2 mps 755 mmHg 93%
    05:00 +21°C° 0.1 mm 2 mps 756 mmHg 94%
    06:00 +21°C° 0.1 mm 2 mps 756 mmHg 94%
    07:00 +23°C° 0 mm 2 mps 756 mmHg 87%
    08:00 +25°C° 0 mm 2 mps 757 mmHg 80%
    09:00 +27°C° 0 mm 2 mps 758 mmHg 73%
    10:00 +30°C° 0 mm 2 mps 757 mmHg 63%
    11:00 +32°C° 0 mm 2 mps 757 mmHg 53%
    12:00 +35°C° 0 mm 1 mps 756 mmHg 43%
    13:00 +36°C° 0 mm 2 mps 755 mmHg 38%
    14:00 +37°C° 0 mm 3 mps 754 mmHg 33%
    15:00 +37°C° 0 mm 4 mps 753 mmHg 28%
    16:00 +35°C° 0 mm 3 mps 753 mmHg 31%
    17:00 +32°C° 0 mm 2 mps 753 mmHg 35%
    18:00 +30°C° 0 mm 1 mps 753 mmHg 38%
    19:00 +29°C° 0 mm 1 mps 754 mmHg 38%
    20:00 +27°C° 0 mm 1 mps 755 mmHg 38%
    21:00 +26°C° 0 mm 1 mps 756 mmHg 38%
    22:00 +25°C° 0 mm 1 mps 756 mmHg 40%
    23:00 +24°C° 0 mm 1 mps 756 mmHg 42%

    24 March, Sunday

    Time Temperature Precipitation Wind Pressure Humidity
    00:00 +24°C° 0 mm 1 mps 755 mmHg 43%
    01:00 +23°C° 0 mm 1 mps 755 mmHg 47%
    02:00 +23°C° 0 mm 1 mps 755 mmHg 50%
    03:00 +22°C° 0 mm 1 mps 754 mmHg 53%
    04:00 +20°C° 0 mm 2 mps 755 mmHg 58%
    05:00 +20°C° 0 mm 2 mps 755 mmHg 63%
    06:00 +19°C° 0 mm 2 mps 756 mmHg 67%
    07:00 +23°C° 0 mm 2 mps 756 mmHg 64%
    08:00 +25°C° 0 mm 2 mps 757 mmHg 60%
    09:00 +28°C° 0 mm 2 mps 757 mmHg 56%
    10:00 +30°C° 0 mm 2 mps 757 mmHg 47%
    11:00 +33°C° 0 mm 1 mps 756 mmHg 39%
    12:00 +36°C° 0 mm 1 mps 756 mmHg 30%
    13:00 +36°C° 0 mm 1 mps 755 mmHg 26%
    14:00 +37°C° 0 mm 2 mps 754 mmHg 22%
    15:00 +38°C° 0 mm 2 mps 753 mmHg 19%
    16:00 +35°C° 0 mm 2 mps 754 mmHg 23%
    17:00 +32°C° 0 mm 2 mps 754 mmHg 28%
    18:00 +30°C° 0 mm 1 mps 754 mmHg 32%
    19:00 +28°C° 0 mm 1 mps 755 mmHg 33%
    20:00 +27°C° 0 mm 1 mps 755 mmHg 35%
    21:00 +26°C° 0 mm 1 mps 756 mmHg 36%
    22:00 +25°C° 0 mm 2 mps 756 mmHg 38%
    23:00 +24°C° 0 mm 2 mps 756 mmHg 40%

    25 March, Monday

    Time Temperature Precipitation Wind Pressure Humidity
    00:00 +23°C° 0 mm 2 mps 756 mmHg 42%
    01:00 +23°C° 0 mm 2 mps 756 mmHg 44%
    02:00 +23°C° 0 mm 2 mps 756 mmHg 45%
    03:00 +21°C° 0 mm 2 mps 755 mmHg 46%
    04:00 +21°C° 0 mm 2 mps 756 mmHg 47%
    05:00 +20°C° 0 mm 2 mps 756 mmHg 49%
    06:00 +20°C° 0 mm 2 mps 756 mmHg 51%
    07:00 +23°C° 0 mm 2 mps 757 mmHg 47%
    08:00 +26°C° 0 mm 2 mps 757 mmHg 42%
    09:00 +29°C° 0 mm 2 mps 758 mmHg 38%
    10:00 +31°C° 0 mm 2 mps 757 mmHg 33%
    11:00 +35°C° 0 mm 2 mps 757 mmHg 28%
    12:00 +36°C° 0 mm 1 mps 757 mmHg 23%
    13:00 +38°C° 0 mm 2 mps 756 mmHg 22%
    14:00 +38°C° 0 mm 2 mps 755 mmHg 20%
    15:00 +38°C° 0 mm 3 mps 754 mmHg 19%
    16:00 +36°C° 0 mm 2 mps 754 mmHg 23%
    17:00 +34°C° 0 mm 2 mps 754 mmHg 28%
    18:00 +31°C° 0 mm 1 mps 755 mmHg 33%
    19:00 +29°C° 0 mm 2 mps 755 mmHg 34%
    20:00 +28°C° 0 mm 2 mps 756 mmHg 35%
    21:00 +26°C° 0 mm 2 mps 757 mmHg 36%
    22:00 +26°C° 0 mm 2 mps 757 mmHg 37%
    23:00 +25°C° 0 mm 2 mps 757 mmHg 39%

    26 March, Tuesday

    Time Temperature Precipitation Wind Pressure Humidity
    00:00 +25°C° 0 mm 2 mps 757 mmHg 40%
    01:00 +24°C° 0 mm 2 mps 756 mmHg 41%
    02:00 +24°C° 0 mm 2 mps 756 mmHg 42%
    03:00 +24°C° 0 mm 2 mps 756 mmHg 44%
    04:00 +23°C° 0 mm 2 mps 756 mmHg 45%
    05:00 +21°C° 0 mm 2 mps 756 mmHg 47%
    06:00 +21°C° 0 mm 2 mps 756 mmHg 49%
    07:00 +24°C° 0 mm 2 mps 757 mmHg 47%
    08:00 +27°C° 0 mm 2 mps 757 mmHg 44%
    09:00 +29°C° 0 mm 2 mps 758 mmHg 41%
    10:00 +32°C° 0 mm 2 mps 757 mmHg 36%
    11:00 +36°C° 0 mm 2 mps 757 mmHg 30%
    12:00 +38°C° 0 mm 3 mps 756 mmHg 25%
    13:00 +39°C° 0 mm 3 mps 756 mmHg 23%
    14:00 +40°C° 0 mm 4 mps 755 mmHg 21%
    15:00 +41°C° 0 mm 4 mps 754 mmHg 20%
    16:00 +37°C° 0 mm 3 mps 754 mmHg 24%
    17:00 +35°C° 0 mm 2 mps 754 mmHg 28%
    18:00 +30°C° 0 mm 0 mps 754 mmHg 32%
    19:00 +31°C° 0 mm 1 mps 755 mmHg 33%
    20:00 +30°C° 0 mm 1 mps 756 mmHg 34%
    21:00 +28°C° 0 mm 2 mps 757 mmHg 35%
    22:00 +28°C° 0 mm 2 mps 757 mmHg 37%
    23:00 +27°C° 0 mm 2 mps 757 mmHg 39%
    Show more